Location: Buckeye Ditch
(40.9104°N, 122.9517°W)
Time: 18:51:54
(UTC+00:00)

Vanguard 1 - Pass Details

Date: 24 May 2025
Orbit: 649 x 3822 km, 34.3° (Epoch: 15 June)

Event Time Altitude Azimuth Distance (km) Brightness Sun altitude
Rises 05:37:10 0° 278° (W) 6,120 14.8 -19.0°
Reaches altitude 10° 05:42:19 10° 271° (W) 4,545 13.9 -19.5°
Maximum altitude 05:51:54 33° 214° (SSW) 2,107 11.5 -20.6°
Enters shadow 05:54:23 27° 180° (S) 2,092 11.3 -20.8°
